sat.trackr.live / text

‹ back to catalog

STARLINK-34403

NORAD 64443 · 2025-130F

PAYLOAD ACTIVE UNKNOWN

§ Identity

Operator
Country
US
Launch date
2025-06-18
Launch site
AFETR
Launch vehicle
Mass (kg)
RCS (m²)

Purposes: comms

External: N2YO · Heavens-Above · Gunter

§ Orbital elements

Epoch: 2026-09-20T23:30:50.874336Z

Period
93.85 min
Inclination
53.1575°
Eccentricity
0.0001697
Mean motion
15.34402389 rev/d
Perigee alt
461.5 km
Apogee alt
463.9 km
Semi-major
6,840.8 km
B*
4.4963e-4
RAAN
259.2549°
Arg perigee
70.8029°
Mean anomaly
289.3157°
Rev number
7,063

§ Raw data

STARLINK-344031 64443U 25130F   26263.97975549  .00014846  00000+0  44963-3 0  99972 64443  53.1575 259.2549 0001697  70.8029 289.3157 15.34402389 70634

JSON: /api/v1/satellites/64443 · /tle

For live sub-satellite position, see the globe view (requires WebGL).

§ Visibility from observer

Set your observer location to see the next 7 days of passes ≥ 10°. The values pass through the URL so the page stays shareable.

No JS? Fill the form by hand. The geolocation button needs JavaScript.